TimeEST,TemperatureF,Dew PointF,Humidity,Sea Level PressureIn,VisibilityMPH,Wind Direction,Wind SpeedMPH,Gust SpeedMPH,PrecipitationIn,Events,Conditions,WindDirDegrees,DateUTC
12:53 AM,66.9,64.9,93,29.90,10.0,SSW,10.4,-,0.00,,Overcast,210,2013-11-18 05:53:00
1:53 AM,68.0,66.0,93,29.88,9.0,SSW,10.4,-,0.00,,Overcast,210,2013-11-18 06:53:00
2:53 AM,69.1,66.0,90,29.87,10.0,SSW,13.8,20.7,0.00,,Overcast,210,2013-11-18 07:53:00
3:53 AM,69.1,66.0,90,29.86,10.0,SW,12.7,18.4,N/A,,Overcast,220,2013-11-18 08:53:00
4:05 AM,69.8,66.2,88,29.85,10.0,SW,13.8,19.6,N/A,,Overcast,220,2013-11-18 09:05:00
4:53 AM,69.1,66.0,90,29.86,10.0,SW,11.5,-,N/A,,Overcast,230,2013-11-18 09:53:00
5:00 AM,69.8,66.2,88,29.86,10.0,SW,12.7,-,N/A,,Overcast,230,2013-11-18 10:00:00
5:29 AM,69.8,66.2,88,29.87,10.0,WSW,10.4,-,N/A,,Overcast,250,2013-11-18 10:29:00
5:53 AM,68.0,66.0,93,29.88,10.0,WSW,10.4,-,0.00,,Overcast,240,2013-11-18 10:53:00
6:03 AM,68.0,66.2,94,29.88,2.5,WNW,10.4,19.6,0.11,Rain,Heavy Rain,290,2013-11-18 11:03:00
6:14 AM,66.2,62.6,88,29.88,3.0,WSW,5.8,-,0.16,Rain,Rain,250,2013-11-18 11:14:00
6:23 AM,66.2,62.6,88,29.88,10.0,Calm,Calm,-,0.16,,Overcast,0,2013-11-18 11:23:00
6:53 AM,66.0,63.0,90,29.90,10.0,WNW,3.5,-,0.16,,Mostly Cloudy,290,2013-11-18 11:53:00
7:53 AM,64.0,63.0,96,29.91,10.0,SW,3.5,-,N/A,,Mostly Cloudy,220,2013-11-18 12:53:00
8:53 AM,66.0,62.1,87,29.93,10.0,WSW,3.5,-,N/A,,Overcast,250,2013-11-18 13:53:00
9:53 AM,69.1,60.1,73,29.93,10.0,West,3.5,-,N/A,,Clear,270,2013-11-18 14:53:00
10:53 AM,72.0,54.0,53,29.91,10.0,WSW,6.9,-,N/A,,Clear,240,2013-11-18 15:53:00
11:53 AM,73.9,54.0,50,29.88,10.0,West,8.1,-,N/A,,Clear,270,2013-11-18 16:53:00
12:53 PM,77.0,51.1,40,29.86,10.0,North,-9999.0,-,N/A,,Clear,0,2013-11-18 17:53:00
1:44 PM,77.0,46.4,34,29.85,0.8,Variable,6.9,-,N/A,,Haze,0,2013-11-18 18:44:00
1:53 PM,77.0,46.0,33,29.85,8.0,WNW,10.4,-,N/A,,Clear,290,2013-11-18 18:53:00
2:53 PM,77.0,46.0,33,29.85,10.0,West,15.0,-,N/A,,Clear,260,2013-11-18 19:53:00
3:53 PM,75.9,45.0,33,29.84,10.0,West,6.9,-,N/A,,Clear,280,2013-11-18 20:53:00
4:53 PM,72.0,39.0,30,29.86,10.0,NW,8.1,-,N/A,,Clear,310,2013-11-18 21:53:00
5:53 PM,68.0,37.0,32,29.90,10.0,NNW,8.1,-,N/A,,Clear,340,2013-11-18 22:53:00
6:53 PM,64.9,32.0,29,29.93,10.0,NNW,5.8,-,N/A,,Clear,340,2013-11-18 23:53:00
7:53 PM,62.1,32.0,32,29.94,10.0,NNW,6.9,-,N/A,,Clear,330,2013-11-19 00:53:00
8:53 PM,60.1,30.9,33,29.96,10.0,NNW,9.2,-,N/A,,Clear,330,2013-11-19 01:53:00
9:53 PM,57.9,28.9,33,29.98,10.0,North,9.2,-,N/A,,Clear,350,2013-11-19 02:53:00
10:53 PM,57.0,30.0,36,29.99,10.0,North,12.7,-,N/A,,Clear,350,2013-11-19 03:53:00
11:53 PM,54.0,30.0,40,30.00,10.0,North,12.7,-,N/A,,Clear,350,2013-11-19 04:53:00